When you browse on this site, cookies collect data to enhance your experience and personalize the content and advertising you see.
Visit our Privacy Policy to learn more. By continuing to use the site, you agree to this use of cookies and data.
  • In Romania
  • List of Countries
  • For 7 days
  • Water Temperature
  • Satellite Maps
  • Weather Map
  • Weather Widgets
  • user-avatar
    Login

    Hourly Weather MarcqenBaroeul

    Today, 22 April, Monday

    Time Temperature Precipitation Wind Pressure Humidity
    00:00 +15°C° 0 mm 2 mps 757 mmHg 63%
    01:00 +14°C° 0 mm 2 mps 757 mmHg 65%
    02:00 +14°C° 0 mm 2 mps 756 mmHg 67%
    03:00 +14°C° 0 mm 2 mps 756 mmHg 68%
    04:00 +14°C° 0 mm 2 mps 755 mmHg 69%
    05:00 +14°C° 0 mm 2 mps 755 mmHg 69%
    06:00 +14°C° 0 mm 2 mps 755 mmHg 66%
    07:00 +16°C° 0 mm 3 mps 754 mmHg 62%
    08:00 +18°C° 0 mm 3 mps 754 mmHg 57%
    09:00 +20°C° 0 mm 3 mps 753 mmHg 53%
    10:00 +21°C° 0 mm 3 mps 753 mmHg 48%
    11:00 +23°C° 0 mm 4 mps 752 mmHg 44%
    12:00 +25°C° 0 mm 4 mps 752 mmHg 39%
    13:00 +25°C° 0 mm 4 mps 752 mmHg 38%
    14:00 +26°C° 0 mm 4 mps 751 mmHg 37%
    15:00 +26°C° 0 mm 4 mps 750 mmHg 36%
    16:00 +25°C° 0 mm 3 mps 750 mmHg 41%
    17:00 +22°C° 0 mm 3 mps 750 mmHg 46%
    18:00 +21°C° 0 mm 3 mps 749 mmHg 51%
    19:00 +20°C° 0 mm 3 mps 749 mmHg 54%
    20:00 +19°C° 0 mm 3 mps 749 mmHg 57%
    21:00 +17°C° 0 mm 3 mps 749 mmHg 59%
    22:00 +17°C° 0 mm 4 mps 749 mmHg 61%
    23:00 +15°C° 0 mm 4 mps 749 mmHg 62%

    Tomorrow, 23 April, Tuesday

    Time Temperature Precipitation Wind Pressure Humidity
    00:00 +14°C° 0 mm 4 mps 748 mmHg 64%
    01:00 +14°C° 0 mm 4 mps 748 mmHg 65%
    02:00 +13°C° 0 mm 4 mps 748 mmHg 67%
    03:00 +12°C° 0 mm 4 mps 747 mmHg 69%
    04:00 +12°C° 0 mm 4 mps 747 mmHg 69%
    05:00 +12°C° 0 mm 3 mps 747 mmHg 70%
    06:00 +12°C° 0 mm 3 mps 747 mmHg 71%
    07:00 +13°C° 0 mm 3 mps 747 mmHg 68%
    08:00 +14°C° 0 mm 4 mps 746 mmHg 65%
    09:00 +17°C° 0 mm 4 mps 746 mmHg 61%
    10:00 +18°C° 0 mm 4 mps 746 mmHg 59%
    11:00 +19°C° 0 mm 4 mps 746 mmHg 56%
    12:00 +21°C° 0 mm 4 mps 745 mmHg 54%
    13:00 +21°C° 0 mm 3 mps 745 mmHg 53%
    14:00 +22°C° 0 mm 3 mps 745 mmHg 52%
    15:00 +22°C° 0 mm 3 mps 744 mmHg 52%
    16:00 +21°C° 0 mm 2 mps 744 mmHg 56%
    17:00 +21°C° 0 mm 2 mps 744 mmHg 59%
    18:00 +21°C° 0 mm 1 mps 744 mmHg 63%
    19:00 +19°C° 0 mm 2 mps 744 mmHg 67%
    20:00 +18°C° 0 mm 2 mps 744 mmHg 72%
    21:00 +17°C° 0 mm 2 mps 744 mmHg 76%
    22:00 +16°C° 0 mm 2 mps 744 mmHg 79%
    23:00 +15°C° 0 mm 2 mps 744 mmHg 82%

    Day after tomorrow, 24 April, Wednesday

    Time Temperature Precipitation Wind Pressure Humidity
    00:00 +15°C° 0 mm 2 mps 744 mmHg 85%
    01:00 +14°C° 0 mm 3 mps 744 mmHg 86%
    02:00 +13°C° 0 mm 3 mps 744 mmHg 87%
    03:00 +13°C° 0 mm 4 mps 744 mmHg 88%
    04:00 +13°C° 0 mm 4 mps 744 mmHg 85%
    05:00 +13°C° 0 mm 5 mps 744 mmHg 82%
    06:00 +13°C° 0 mm 6 mps 744 mmHg 79%
    07:00 +14°C° 0.1 mm 6 mps 745 mmHg 79%
    08:00 +14°C° 0.1 mm 7 mps 746 mmHg 79%
    09:00 +14°C° 0.1 mm 7 mps 747 mmHg 78%
    10:00 +15°C° 0 mm 7 mps 747 mmHg 69%
    11:00 +16°C° 0 mm 7 mps 748 mmHg 61%
    12:00 +17°C° 0 mm 6 mps 748 mmHg 52%
    13:00 +17°C° 0.1 mm 7 mps 748 mmHg 52%
    14:00 +17°C° 0.1 mm 7 mps 748 mmHg 52%
    15:00 +17°C° 0.1 mm 7 mps 748 mmHg 52%
    16:00 +16°C° 0.1 mm 6 mps 748 mmHg 55%
    17:00 +15°C° 0.1 mm 5 mps 749 mmHg 59%
    18:00 +14°C° 0.1 mm 3 mps 749 mmHg 62%
    19:00 +14°C° 0 mm 4 mps 749 mmHg 65%
    20:00 +13°C° 0 mm 5 mps 750 mmHg 67%
    21:00 +12°C° 0 mm 5 mps 750 mmHg 70%
    22:00 +11°C° 0 mm 6 mps 750 mmHg 71%
    23:00 +11°C° 0 mm 6 mps 749 mmHg 72%

    25 April, Thursday

    Time Temperature Precipitation Wind Pressure Humidity
    00:00 +11°C° 0 mm 6 mps 749 mmHg 73%
    01:00 +11°C° 0 mm 7 mps 749 mmHg 70%
    02:00 +11°C° 0 mm 7 mps 749 mmHg 67%
    03:00 +11°C° 0 mm 7 mps 748 mmHg 63%
    04:00 +11°C° 0.2 mm 8 mps 748 mmHg 70%
    05:00 +10°C° 0.2 mm 8 mps 748 mmHg 76%
    06:00 +10°C° 0.2 mm 8 mps 749 mmHg 82%
    07:00 +10°C° 0.3 mm 8 mps 749 mmHg 81%
    08:00 +11°C° 0.3 mm 9 mps 749 mmHg 81%
    09:00 +11°C° 0.3 mm 9 mps 750 mmHg 80%
    10:00 +12°C° 0.1 mm 9 mps 750 mmHg 74%
    11:00 +12°C° 0.1 mm 9 mps 751 mmHg 68%
    12:00 +13°C° 0.1 mm 9 mps 751 mmHg 63%
    13:00 +13°C° 0 mm 9 mps 751 mmHg 60%
    14:00 +15°C° 0 mm 9 mps 752 mmHg 57%
    15:00 +15°C° 0 mm 9 mps 752 mmHg 54%
    16:00 +13°C° 0.2 mm 8 mps 753 mmHg 58%
    17:00 +12°C° 0.2 mm 7 mps 753 mmHg 62%
    18:00 +13°C° 0.2 mm 5 mps 754 mmHg 66%
    19:00 +12°C° 0 mm 5 mps 754 mmHg 68%
    20:00 +10°C° 0 mm 5 mps 755 mmHg 71%
    21:00 +10°C° 0 mm 5 mps 755 mmHg 73%
    22:00 +9°C° 0 mm 5 mps 755 mmHg 73%
    23:00 +9°C° 0 mm 5 mps 756 mmHg 73%

    26 April, Friday

    Time Temperature Precipitation Wind Pressure Humidity
    00:00 +10°C° 0 mm 4 mps 756 mmHg 73%
    01:00 +8°C° 0 mm 4 mps 756 mmHg 75%
    02:00 +8°C° 0 mm 4 mps 756 mmHg 78%
    03:00 +7°C° 0 mm 4 mps 756 mmHg 80%
    04:00 +7°C° 0 mm 4 mps 756 mmHg 80%
    05:00 +7°C° 0 mm 4 mps 756 mmHg 80%
    06:00 +8°C° 0 mm 4 mps 756 mmHg 80%
    07:00 +8°C° 0.2 mm 5 mps 757 mmHg 80%
    08:00 +9°C° 0.2 mm 6 mps 757 mmHg 80%
    09:00 +9°C° 0.2 mm 7 mps 757 mmHg 81%
    10:00 +10°C° 0.3 mm 7 mps 757 mmHg 77%
    11:00 +12°C° 0.3 mm 7 mps 758 mmHg 73%
    12:00 +14°C° 0.3 mm 7 mps 758 mmHg 69%
    13:00 +14°C° 0.5 mm 7 mps 758 mmHg 70%
    14:00 +14°C° 0.5 mm 7 mps 758 mmHg 71%
    15:00 +14°C° 0.5 mm 7 mps 758 mmHg 72%
    16:00 +12°C° 0.1 mm 7 mps 759 mmHg 75%
    17:00 +11°C° 0.1 mm 7 mps 759 mmHg 78%
    18:00 +10°C° 0.1 mm 7 mps 760 mmHg 82%
    19:00 +10°C° 0 mm 7 mps 760 mmHg 81%
    20:00 +10°C° 0 mm 8 mps 761 mmHg 79%
    21:00 +9°C° 0 mm 8 mps 762 mmHg 78%
    22:00 +9°C° 0 mm 7 mps 762 mmHg 77%
    23:00 +8°C° 0 mm 6 mps 763 mmHg 77%

    27 April, Saturday

    Time Temperature Precipitation Wind Pressure Humidity
    00:00 +8°C° 0 mm 5 mps 763 mmHg 76%
    01:00 +8°C° 0 mm 5 mps 763 mmHg 78%
    02:00 +8°C° 0 mm 5 mps 763 mmHg 80%
    03:00 +8°C° 0 mm 5 mps 763 mmHg 82%
    04:00 +8°C° 0.1 mm 5 mps 763 mmHg 83%
    05:00 +8°C° 0.1 mm 5 mps 763 mmHg 85%
    06:00 +8°C° 0.1 mm 6 mps 763 mmHg 86%
    07:00 +9°C° 0.1 mm 6 mps 764 mmHg 81%
    08:00 +10°C° 0.1 mm 6 mps 764 mmHg 75%
    09:00 +11°C° 0.1 mm 6 mps 764 mmHg 70%
    10:00 +13°C° 0 mm 6 mps 764 mmHg 66%
    11:00 +13°C° 0 mm 6 mps 765 mmHg 62%
    12:00 +14°C° 0 mm 6 mps 765 mmHg 57%
    13:00 +14°C° 0 mm 6 mps 765 mmHg 58%
    14:00 +15°C° 0 mm 7 mps 764 mmHg 58%
    15:00 +15°C° 0 mm 7 mps 764 mmHg 59%
    16:00 +15°C° 0 mm 7 mps 764 mmHg 64%
    17:00 +14°C° 0 mm 6 mps 764 mmHg 69%
    18:00 +14°C° 0 mm 6 mps 764 mmHg 75%
    19:00 +14°C° 0.1 mm 6 mps 764 mmHg 77%
    20:00 +14°C° 0.1 mm 6 mps 764 mmHg 80%
    21:00 +12°C° 0.1 mm 7 mps 765 mmHg 82%
    22:00 +13°C° 0.1 mm 6 mps 765 mmHg 84%
    23:00 +13°C° 0.1 mm 6 mps 765 mmHg 85%
    Show more